sat.trackr.live / text

‹ back to catalog

STARLINK-2628

NORAD 48359 · 2021-038G

PAYLOAD ACTIVE UNKNOWN

§ Identity

Operator
Country
US
Launch date
2021-05-04
Launch site
AFETR
Launch vehicle
Mass (kg)
RCS (m²)

Purposes: comms

External: N2YO · Heavens-Above · Gunter

§ Orbital elements

Epoch: 2026-05-25T00:45:16.629408Z

Period
94.01 min
Inclination
53.1603°
Eccentricity
0.0001148
Mean motion
15.31722279 rev/d
Perigee alt
469.9 km
Apogee alt
471.5 km
Semi-major
6,848.8 km
B*
2.0621e-4
RAAN
3.4021°
Arg perigee
92.4788°
Mean anomaly
267.6345°
Rev number
27,876

§ Raw data

STARLINK-26281 48359U 21038G   26145.03144247  .00006044  00000+0  20621-3 0  99932 48359  53.1603   3.4021 0001148  92.4788 267.6345 15.31722279278763

JSON: /api/v1/satellites/48359 · /tle

For live sub-satellite position, see the globe view (requires WebGL).

§ Visibility from observer

Set your observer location to see the next 7 days of passes ≥ 10°. The values pass through the URL so the page stays shareable.

No JS? Fill the form by hand. The geolocation button needs JavaScript.